Regional Weather Roundup
Issued by NWS

Home | Current Version | Previous Version | Text Only | Print | Product List | Glossary Off
Versions: 1 2 3 4 5 6 7 8 9 10 11 12 13 14 15 16 17 18 19 20 21 22 23 24 25 26 27 28 29 30 31 32 33 34 35 36 37 38 39 40 41 42 43 44 45 46 47 48 49 50

000
ASUS43 KLMK 030510
RWRKY
KENTUCKY REGIONAL WEATHER ROUNDUP
NATIONAL WEATHER SERVICE LOUISVILLE KY
100 AM EDT SUN MAY 03 2015

NOTE "FAIR" INDICATES FEW OR NO CLOUDS BELOW 12,000 FEET
WITH NO SIGNIFICANT WEATHER AND/OR OBSTRUCTIONS TO VISIBILITY.

KYZ001>023-026-027-061>063-070>075-030600-
WESTERN AND SOUTH CENTRAL KENTUCKY

CITY           SKY/WX    TMP DP  RH WIND       PRES   REMARKS
PADUCAH        CLEAR     56  48  74 CALM      30.04S
HENDERSON      PTCLDY    54  46  76 CALM      30.05S
OWENSBORO      PTCLDY    60  51  72 CALM      30.06F
HOPKINSVILLE   CLEAR     58  53  85 MISG      30.06S
BOWLING GREEN  PTCLDY    54  48  80 CALM      30.08S
GLASGOW        PTCLDY    51  49  90 CALM      30.09S
$$

KYZ024-025-028>034-038-045-046-053-030600-
NORTH CENTRAL KENTUCKY

CITY           SKY/WX    TMP DP  RH WIND       PRES   REMARKS
LOUISVILLE/SDF MOCLDY    61  47  59 SE3       30.07F
LOUISVILLE/LOU PTCLDY    57  48  72 CALM      30.08S
FORT KNOX      PTCLDY    53  47  81 CALM      30.06F
$$

KYZ035>037-039>044-047>052-055>060-089>105-030600-
NORTHEAST KENTUCKY

CITY           SKY/WX    TMP DP  RH WIND       PRES   REMARKS
LEXINGTON      CLEAR     52  46  80 SW5       30.09F
COVINGTON      PTCLDY    55  44  66 S3        30.07S
FRANKFORT      PTCLDY    52  46  80 CALM      30.07S
$$

KYZ054-064>069-076>088-106>120-030600-
SOUTHEAST KENTUCKY

CITY           SKY/WX    TMP DP  RH WIND       PRES   REMARKS
JACKSON        CLEAR     61  36  39 CALM      30.11F
LONDON         CLEAR     50  44  80 CALM      30.11S
SOMERSET       CLEAR     50  43  76 CALM      30.12S
MIDDLESBORO    CLEAR     47  44  92 CALM      30.14S
MONTICELLO     CLEAR     47  45  93 CALM      30.13F
$$



USA.gov is the U.S. government's official web portal to all federal, state and local government web resources and services.